Location: Canyon City
(32.5951°N, 116.5278°W)
Time: 03:16:01
(UTC+00:00)

Cosmos 2333 Rocket - Pass Details

Date: 08 September 2024
Orbit: 839 x 862 km, 70.8° (Epoch: 03 October)

Event Time Altitude Azimuth Distance (km) Brightness Sun altitude
Rises 12:44:40 0° 334° (NNW) 3,428 5.2 -9.4°
Reaches altitude 10° 12:47:10 10° 331° (NNW) 2,486 4.5 -8.9°
Maximum altitude 12:52:46 60° 253° (WSW) 967 2.2 -7.7°
Drops below altitude 10° 12:58:19 10° 174° (S) 2,457 4.6 -6.6°
Sets 13:00:46 0° 171° (S) 3,385 5.3 -6.1°
